This is the latest recevied weather packets stored in our database for station/object DG6YGE-6. If no packets are shown the sender has not sent any weather packets the latest 10 day(s).
| Time | Temp. | Humidity | Pressure | Rain* | Wind** | Luminosity | Snow |
|---|---|---|---|---|---|---|---|
| 1777763352 | 16.11° C | 86% | 1013.3 hPa | 0.51 mm | - | 0 W/m² | - |
| 1777762753 | 16.11° C | 85% | 1013.3 hPa | 0.51 mm | - | 0 W/m² | - |
| 1777762152 | 16.11° C | 84% | 1012.9 hPa | 0.51 mm | - | 0 W/m² | - |
| 1777761552 | 16.11° C | 83% | 1014 hPa | 0 mm | - | 0 W/m² | - |
| 1777760952 | 16.11° C | 83% | 1013.8 hPa | 0 mm | - | 0 W/m² | - |
| 1777759752 | 16.67° C | 82% | 1014.1 hPa | 0 mm | - | 0 W/m² | - |
| 1777759152 | 16.67° C | 82% | 1014.3 hPa | 0 mm | - | 0 W/m² | - |
| 1777758552 | 16.67° C | 81% | 1014.3 hPa | 0 mm | - | 0 W/m² | - |
| 1777757952 | 17.22° C | 80% | 1014.6 hPa | 0 mm | - | 0 W/m² | - |
| 1777757351 | 17.78° C | 77% | 1014.6 hPa | 0 mm | - | 0 W/m² | - |
| 1777756752 | 18.33° C | 73% | 1013.8 hPa | 0 mm | - | 0 W/m² | - |
| 1777756152 | 18.33° C | 72% | 1013.3 hPa | 0 mm | - | 0 W/m² | - |
| 1777755552 | 18.89° C | 70% | 1013.6 hPa | 0 mm | - | 0 W/m² | - |
| 1777754952 | 18.89° C | 69% | 1013.5 hPa | 0 mm | - | 0 W/m² | - |
| 1777754351 | 19.44° C | 68% | 1014.1 hPa | 0 mm | - | 0 W/m² | - |
| 1777753752 | 18.33° C | 69% | 1014.3 hPa | 0 mm | - | 0 W/m² | - |
| 1777753152 | 18.33° C | 73% | 1013.5 hPa | 0 mm | - | 0 W/m² | - |
| 1777752552 | 18.33° C | 72% | 1013.4 hPa | 0 mm | - | 0 W/m² | - |
| 1777751952 | 18.33° C | 71% | 1013.4 hPa | 0 mm | - | 0 W/m² | - |
| 1777751351 | 18.89° C | 70% | 1013.5 hPa | 0 mm | - | 0 W/m² | - |
| 1777750752 | 19.44° C | 68% | 1013.5 hPa | 0 mm | - | 0 W/m² | - |
| 1777750152 | 20° C | 66% | 1013.4 hPa | 0 mm | - | 0 W/m² | - |
| 1777749551 | 20.56° C | 65% | 1013.3 hPa | 0 mm | - | 0 W/m² | - |
| 1777748952 | 21.11° C | 63% | 1013.2 hPa | 0 mm | - | 0 W/m² | - |
| 1777748352 | 21.11° C | 60% | 1013.2 hPa | 0 mm | - | 2 W/m² | - |
* Rain latest hour (hover to see other rain measurements)
** Current wind speed in m/s (hover to see current wind gust speed)